Time,TemperatureF,DewpointF,PressureIn,WindDirection,WindDirectionDegrees,WindSpeedMPH,WindSpeedGustMPH,Humidity,HourlyPrecipIn,Conditions,Clouds,dailyrainin,SolarRadiationWatts/m^2,SoftwareType,DateUTC
2013-04-29 00:00:00,57.1,56.0,29.81,South,173,0.0,1.0,96,0.00,,---,0.00,0.00,VWS V14.01,2013-04-29 04:00:00,
2013-04-29 00:01:00,57.1,56.0,29.81,South,173,0.0,1.0,96,0.00,,---,0.00,0.00,VWS V14.01,2013-04-29 04:01:00,
2013-04-29 00:02:00,57.1,56.0,29.81,SSE,166,3.0,4.0,96,0.00,,---,0.00,0.00,VWS V14.01,2013-04-29 04:02:00,
2013-04-29 00:07:00,57.1,56.0,29.81,SSE,164,0.0,4.0,96,0.00,,---,0.00,0.00,VWS V14.01,2013-04-29 04:07:00,
2013-04-29 00:12:00,57.1,56.0,29.81,South,184,3.0,7.0,96,0.00,,---,0.00,0.00,VWS V14.01,2013-04-29 04:12:00,
2013-04-29 00:17:00,57.1,56.0,29.81,South,183,0.0,7.0,96,0.00,,---,0.00,0.00,VWS V14.01,2013-04-29 04:17:00,
2013-04-29 00:22:00,57.1,56.0,29.81,SE,142,5.0,7.0,96,0.00,,---,0.00,0.00,VWS V14.01,2013-04-29 04:22:00,
2013-04-29 00:27:00,57.1,56.0,29.81,SSE,163,2.0,7.0,96,0.00,,---,0.00,0.00,VWS V14.01,2013-04-29 04:27:00,
2013-04-29 00:30:00,57.1,56.0,29.81,South,182,0.0,7.0,96,0.00,,---,0.00,0.00,VWS V14.01,2013-04-29 04:30:00,
2013-04-29 00:32:00,57.0,55.9,29.81,South,187,0.0,5.0,96,0.00,,---,0.00,0.00,VWS V14.01,2013-04-29 04:32:00,
2013-04-29 00:38:00,57.1,56.0,29.81,South,173,1.0,7.0,96,0.00,,---,0.00,0.00,VWS V14.01,2013-04-29 04:38:00,
2013-04-29 00:43:00,57.0,55.9,29.81,South,182,6.0,7.0,96,0.00,,---,0.00,0.00,VWS V14.01,2013-04-29 04:43:00,
2013-04-29 00:48:00,57.1,56.0,29.81,South,180,3.0,7.0,96,0.00,,---,0.00,0.00,VWS V14.01,2013-04-29 04:48:00,
2013-04-29 00:53:00,57.1,56.0,29.81,SSE,168,4.0,7.0,96,0.00,,---,0.00,0.00,VWS V14.01,2013-04-29 04:53:00,
2013-04-29 00:58:00,57.1,56.0,29.81,South,182,3.0,7.0,96,0.00,,---,0.00,0.00,VWS V14.01,2013-04-29 04:58:00,
2013-04-29 01:00:00,57.2,56.1,29.81,South,182,2.0,7.0,96,0.00,,---,0.00,0.00,VWS V14.01,2013-04-29 05:00:00,
2013-04-29 01:03:00,57.2,56.1,29.81,South,171,5.0,5.0,96,0.00,,---,0.00,0.00,VWS V14.01,2013-04-29 05:03:00,
2013-04-29 01:08:00,57.2,56.1,29.81,South,181,5.0,6.0,96,0.00,,---,0.00,0.00,VWS V14.01,2013-04-29 05:08:00,
2013-04-29 01:13:00,57.3,56.2,29.81,SSW,192,1.0,6.0,96,0.00,,---,0.00,0.00,VWS V14.01,2013-04-29 05:13:00,
2013-04-29 01:18:00,57.3,56.2,29.82,SSW,192,0.0,6.0,96,0.00,,---,0.00,0.00,VWS V14.01,2013-04-29 05:18:00,
2013-04-29 01:23:00,57.3,56.2,29.82,SSW,192,2.0,6.0,96,0.00,,---,0.00,0.00,VWS V14.01,2013-04-29 05:23:00,
2013-04-29 01:28:00,57.3,56.2,29.82,SSW,192,0.0,6.0,96,0.00,,---,0.00,0.00,VWS V14.01,2013-04-29 05:28:00,
2013-04-29 01:30:00,57.3,56.2,29.82,SSW,192,0.0,6.0,96,0.00,,---,0.00,0.00,VWS V14.01,2013-04-29 05:30:00,
2013-04-29 01:33:00,57.3,56.2,29.82,SSW,193,2.0,4.0,96,0.00,,---,0.00,0.00,VWS V14.01,2013-04-29 05:33:00,
2013-04-29 01:38:00,57.3,56.2,29.81,South,189,2.0,4.0,96,0.00,,---,0.00,0.00,VWS V14.01,2013-04-29 05:38:00,
2013-04-29 01:43:00,57.3,56.2,29.81,South,187,2.0,5.0,96,0.00,,---,0.00,0.00,VWS V14.01,2013-04-29 05:43:00,
2013-04-29 01:48:00,57.3,56.2,29.81,South,187,1.0,5.0,96,0.00,,---,0.00,0.00,VWS V14.01,2013-04-29 05:48:00,
2013-04-29 01:53:00,57.3,56.2,29.81,South,187,0.0,5.0,96,0.00,,---,0.00,0.00,VWS V14.01,2013-04-29 05:53:00,
2013-04-29 01:58:00,57.3,56.2,29.81,SSW,196,1.0,5.0,96,0.00,,---,0.00,0.00,VWS V14.01,2013-04-29 05:58:00,
2013-04-29 02:00:00,57.3,56.2,29.82,SSW,194,1.0,5.0,96,0.00,,---,0.00,0.00,VWS V14.01,2013-04-29 06:00:00,
2013-04-29 02:03:00,57.3,56.2,29.82,SSW,192,3.0,5.0,96,0.00,,---,0.00,0.00,VWS V14.01,2013-04-29 06:03:00,
2013-04-29 02:08:00,57.3,56.2,29.82,South,181,5.0,7.0,96,0.00,,---,0.00,0.00,VWS V14.01,2013-04-29 06:08:00,
2013-04-29 02:13:00,57.4,56.6,29.81,SSW,194,1.0,7.0,97,0.00,,---,0.00,0.00,VWS V14.01,2013-04-29 06:13:00,
2013-04-29 02:18:00,57.4,56.6,29.81,South,190,1.0,7.0,97,0.00,,---,0.00,0.00,VWS V14.01,2013-04-29 06:18:00,
2013-04-29 02:23:00,57.4,56.6,29.81,South,180,1.0,7.0,97,0.00,,---,0.00,0.00,VWS V14.01,2013-04-29 06:23:00,
2013-04-29 02:28:00,57.4,56.6,29.81,SSW,207,1.0,7.0,97,0.00,,---,0.00,0.00,VWS V14.01,2013-04-29 06:28:00,
2013-04-29 02:30:00,57.4,56.6,29.81,SSW,211,3.0,7.0,97,0.00,,---,0.00,0.00,VWS V14.01,2013-04-29 06:30:00,
2013-04-29 02:33:00,57.4,56.6,29.81,South,174,4.0,6.0,97,0.00,,---,0.00,0.00,VWS V14.01,2013-04-29 06:33:00,
2013-04-29 02:38:00,57.4,56.6,29.81,SSW,213,6.0,8.0,97,0.00,,---,0.00,0.00,VWS V14.01,2013-04-29 06:38:00,
2013-04-29 02:43:00,57.4,56.6,29.81,South,184,1.0,8.0,97,0.00,,---,0.00,0.00,VWS V14.01,2013-04-29 06:43:00,
2013-04-29 02:48:00,57.4,56.6,29.81,SSW,201,2.0,8.0,97,0.00,,---,0.00,0.00,VWS V14.01,2013-04-29 06:48:00,
2013-04-29 02:53:00,57.4,56.6,29.81,SSE,167,1.0,8.0,97,0.00,,---,0.00,0.00,VWS V14.01,2013-04-29 06:53:00,
2013-04-29 02:58:00,57.4,56.6,29.81,South,177,4.0,8.0,97,0.00,,---,0.00,0.00,VWS V14.01,2013-04-29 06:58:00,
2013-04-29 03:00:00,57.4,56.6,29.81,South,173,2.0,8.0,97,0.00,,---,0.00,0.00,VWS V14.01,2013-04-29 07:00:00,
2013-04-29 03:03:00,57.4,56.6,29.81,South,183,1.0,5.0,97,0.00,,---,0.00,0.00,VWS V14.01,2013-04-29 07:03:00,
2013-04-29 03:08:00,57.4,56.6,29.81,SSW,207,3.0,6.0,97,0.00,,---,0.00,0.00,VWS V14.01,2013-04-29 07:08:00,
2013-04-29 03:13:00,57.4,56.6,29.81,SSW,209,2.0,6.0,97,0.00,,---,0.00,0.00,VWS V14.01,2013-04-29 07:13:00,
2013-04-29 03:18:00,57.4,56.6,29.81,SSW,192,6.0,7.0,97,0.00,,---,0.00,0.00,VWS V14.01,2013-04-29 07:18:00,
2013-04-29 03:23:00,57.4,56.6,29.81,SSW,195,1.0,7.0,97,0.00,,---,0.00,0.00,VWS V14.01,2013-04-29 07:23:00,
2013-04-29 03:28:00,57.4,56.6,29.81,South,178,2.0,8.0,97,0.00,,---,0.00,0.00,VWS V14.01,2013-04-29 07:28:00,
2013-04-29 03:30:00,57.4,56.6,29.81,South,178,0.0,8.0,97,0.00,,---,0.00,0.00,VWS V14.01,2013-04-29 07:30:00,
2013-04-29 03:33:00,57.4,56.6,29.81,SSW,199,2.0,5.0,97,0.00,,---,0.00,0.00,VWS V14.01,2013-04-29 07:33:00,
2013-04-29 03:38:00,57.4,56.3,29.81,SSW,193,4.0,7.0,96,0.00,,---,0.00,0.00,VWS V14.01,2013-04-29 07:38:00,
2013-04-29 03:43:00,57.4,56.3,29.81,South,173,4.0,7.0,96,0.00,,---,0.00,0.00,VWS V14.01,2013-04-29 07:43:00,
2013-04-29 03:48:00,57.3,56.2,29.82,South,178,6.0,7.0,96,0.00,,---,0.00,0.00,VWS V14.01,2013-04-29 07:48:00,
2013-04-29 03:53:00,57.3,56.2,29.82,SSW,192,4.0,11.0,96,0.00,,---,0.00,0.00,VWS V14.01,2013-04-29 07:53:00,
2013-04-29 03:59:00,57.3,56.2,29.82,South,188,1.0,11.0,96,0.00,,---,0.00,0.00,VWS V14.01,2013-04-29 07:59:00,
2013-04-29 04:00:00,57.3,56.2,29.82,South,188,4.0,11.0,96,0.00,,---,0.00,0.00,VWS V14.01,2013-04-29 08:00:00,
2013-04-29 04:04:00,57.2,56.1,29.82,SSW,208,2.0,9.0,96,0.00,,---,0.00,0.00,VWS V14.01,2013-04-29 08:04:00,
2013-04-29 04:09:00,57.2,56.1,29.82,SSW,195,5.0,9.0,96,0.00,,---,0.00,0.00,VWS V14.01,2013-04-29 08:09:00,
2013-04-29 04:14:00,57.2,56.1,29.82,South,177,2.0,9.0,96,0.00,,---,0.00,0.00,VWS V14.01,2013-04-29 08:14:00,
2013-04-29 04:19:00,57.2,56.1,29.82,SW,219,2.0,9.0,96,0.00,,---,0.00,0.00,VWS V14.01,2013-04-29 08:19:00,
2013-04-29 04:24:00,57.1,56.0,29.82,SSW,212,0.0,9.0,96,0.00,,---,0.00,0.00,VWS V14.01,2013-04-29 08:24:00,
2013-04-29 04:29:00,57.1,56.0,29.82,South,178,2.0,9.0,96,0.00,,---,0.00,0.00,VWS V14.01,2013-04-29 08:29:00,
2013-04-29 04:30:00,57.1,56.0,29.82,South,178,2.0,9.0,96,0.00,,---,0.00,0.00,VWS V14.01,2013-04-29 08:30:00,
2013-04-29 04:34:00,57.0,55.9,29.82,South,169,3.0,6.0,96,0.00,,---,0.00,0.00,VWS V14.01,2013-04-29 08:34:00,
2013-04-29 04:39:00,57.0,55.9,29.83,SSW,203,3.0,6.0,96,0.00,,---,0.00,0.00,VWS V14.01,2013-04-29 08:39:00,
2013-04-29 04:44:00,57.0,55.9,29.83,South,181,2.0,6.0,96,0.00,,---,0.00,0.00,VWS V14.01,2013-04-29 08:44:00,
2013-04-29 04:49:00,57.0,55.9,29.83,SSW,213,4.0,6.0,96,0.00,,---,0.00,0.00,VWS V14.01,2013-04-29 08:49:00,
2013-04-29 04:54:00,57.0,55.9,29.83,SSW,208,2.0,6.0,96,0.00,,---,0.00,0.00,VWS V14.01,2013-04-29 08:54:00,
2013-04-29 04:59:00,57.0,55.9,29.83,South,184,3.0,9.0,96,0.00,,---,0.00,0.00,VWS V14.01,2013-04-29 08:59:00,
2013-04-29 05:00:00,57.0,55.9,29.83,South,184,1.0,9.0,96,0.00,,---,0.00,0.00,VWS V14.01,2013-04-29 09:00:00,
2013-04-29 05:04:00,57.0,55.9,29.83,South,186,0.0,4.0,96,0.00,,---,0.00,0.00,VWS V14.01,2013-04-29 09:04:00,
2013-04-29 05:09:00,56.9,55.8,29.83,SSW,201,1.0,6.0,96,0.00,,---,0.00,0.00,VWS V14.01,2013-04-29 09:09:00,
2013-04-29 05:14:00,57.0,55.9,29.83,South,188,6.0,6.0,96,0.00,,---,0.00,0.00,VWS V14.01,2013-04-29 09:14:00,
2013-04-29 05:19:00,57.0,55.9,29.83,SSW,205,3.0,6.0,96,0.00,,---,0.00,0.00,VWS V14.01,2013-04-29 09:19:00,
2013-04-29 05:24:00,57.0,55.9,29.83,SSW,209,3.0,6.0,96,0.01,,---,0.01,0.00,VWS V14.01,2013-04-29 09:24:00,
2013-04-29 05:29:00,57.0,55.9,29.83,SW,215,5.0,6.0,96,0.02,,---,0.02,0.00,VWS V14.01,2013-04-29 09:29:00,
2013-04-29 05:30:00,57.0,55.9,29.83,South,186,5.0,7.0,96,0.02,,---,0.02,0.00,VWS V14.01,2013-04-29 09:30:00,
2013-04-29 05:34:00,56.9,55.8,29.83,SSW,194,5.0,7.0,96,0.02,,---,0.02,0.00,VWS V14.01,2013-04-29 09:34:00,
2013-04-29 05:39:00,56.9,55.8,29.83,SSW,211,4.0,7.0,96,0.02,,---,0.02,0.00,VWS V14.01,2013-04-29 09:39:00,
2013-04-29 05:44:00,56.9,55.8,29.83,South,180,5.0,9.0,96,0.02,,---,0.02,0.00,VWS V14.01,2013-04-29 09:44:00,
2013-04-29 05:49:00,56.9,55.8,29.83,SSW,211,2.0,9.0,96,0.02,,---,0.02,0.00,VWS V14.01,2013-04-29 09:49:00,
2013-04-29 05:54:00,56.9,55.8,29.83,SW,219,2.0,9.0,96,0.02,,---,0.02,0.00,VWS V14.01,2013-04-29 09:54:00,
2013-04-29 05:59:00,56.8,55.7,29.83,SW,219,4.0,9.0,96,0.02,,---,0.02,0.00,VWS V14.01,2013-04-29 09:59:00,
2013-04-29 06:00:00,56.8,55.7,29.83,SSW,212,4.0,9.0,96,0.02,,---,0.02,0.00,VWS V14.01,2013-04-29 10:00:00,
2013-04-29 06:04:00,56.8,55.7,29.83,SSW,213,3.0,5.0,96,0.02,,---,0.02,0.00,VWS V14.01,2013-04-29 10:04:00,
2013-04-29 06:09:00,56.8,55.7,29.84,SW,221,3.0,5.0,96,0.02,,---,0.02,0.00,VWS V14.01,2013-04-29 10:09:00,
2013-04-29 06:14:00,56.7,55.6,29.84,SW,215,4.0,5.0,96,0.02,,---,0.02,0.00,VWS V14.01,2013-04-29 10:14:00,
2013-04-29 06:19:00,56.7,55.6,29.84,SW,217,3.0,5.0,96,0.02,,---,0.02,0.00,VWS V14.01,2013-04-29 10:19:00,
2013-04-29 06:24:00,56.7,55.6,29.84,SW,216,1.0,5.0,96,0.02,,---,0.02,0.00,VWS V14.01,2013-04-29 10:24:00,
2013-04-29 06:29:00,56.7,55.6,29.84,SW,219,3.0,5.0,96,0.02,,---,0.02,0.00,VWS V14.01,2013-04-29 10:29:00,
2013-04-29 06:30:00,56.6,55.5,29.84,SSW,213,4.0,7.0,96,0.02,,---,0.02,0.00,VWS V14.01,2013-04-29 10:30:00,
2013-04-29 06:34:00,56.6,55.5,29.84,SW,223,0.0,5.0,96,0.00,,---,0.02,0.00,VWS V14.01,2013-04-29 10:34:00,
2013-04-29 06:39:00,56.6,55.5,29.84,SW,216,4.0,5.0,96,0.00,,---,0.02,0.00,VWS V14.01,2013-04-29 10:39:00,
2013-04-29 06:44:00,56.5,55.4,29.85,SW,221,1.0,5.0,96,0.00,,---,0.02,5.00,VWS V14.01,2013-04-29 10:44:00,
2013-04-29 06:49:00,56.4,55.3,29.85,SSW,213,4.0,6.0,96,0.00,,---,0.02,7.00,VWS V14.01,2013-04-29 10:49:00,
2013-04-29 06:54:00,56.4,55.3,29.85,SW,220,2.0,6.0,96,0.00,,---,0.02,11.00,VWS V14.01,2013-04-29 10:54:00,
2013-04-29 06:59:00,56.3,55.2,29.85,SW,216,4.0,6.0,96,0.00,,---,0.02,12.00,VWS V14.01,2013-04-29 10:59:00,
2013-04-29 07:00:00,56.3,55.2,29.85,SSW,211,4.0,6.0,96,0.00,,---,0.02,12.00,VWS V14.01,2013-04-29 11:00:00,
2013-04-29 07:04:00,56.3,55.2,29.85,SSW,213,3.0,5.0,96,0.00,,---,0.02,14.00,VWS V14.01,2013-04-29 11:04:00,
2013-04-29 07:09:00,56.3,55.2,29.85,SSW,205,4.0,7.0,96,0.00,,---,0.02,23.00,VWS V14.01,2013-04-29 11:09:00,
2013-04-29 07:14:00,56.3,55.2,29.85,SSW,200,5.0,7.0,96,0.00,,---,0.02,26.00,VWS V14.01,2013-04-29 11:14:00,
2013-04-29 07:19:00,56.3,55.2,29.86,SSW,211,3.0,7.0,96,0.00,,---,0.02,25.00,VWS V14.01,2013-04-29 11:19:00,
2013-04-29 07:24:00,56.3,55.2,29.86,SW,217,2.0,7.0,96,0.00,,---,0.02,25.00,VWS V14.01,2013-04-29 11:24:00,
2013-04-29 07:29:00,56.3,55.2,29.86,WSW,247,3.0,7.0,96,0.01,,---,0.03,30.00,VWS V14.01,2013-04-29 11:29:00,
2013-04-29 07:30:00,56.3,55.2,29.86,WSW,247,2.0,7.0,96,0.01,,---,0.03,32.00,VWS V14.01,2013-04-29 11:30:00,
2013-04-29 07:34:00,56.3,55.2,29.86,SW,219,4.0,7.0,96,0.01,,---,0.03,39.00,VWS V14.01,2013-04-29 11:34:00,
2013-04-29 07:39:00,56.4,55.3,29.86,SW,217,3.0,7.0,96,0.01,,---,0.03,40.00,VWS V14.01,2013-04-29 11:39:00,
2013-04-29 07:44:00,56.4,55.3,29.87,SW,231,4.0,7.0,96,0.01,,---,0.03,49.00,VWS V14.01,2013-04-29 11:44:00,
2013-04-29 07:49:00,56.4,55.3,29.87,SW,215,5.0,7.0,96,0.01,,---,0.03,56.00,VWS V14.01,2013-04-29 11:49:00,
2013-04-29 07:54:00,56.4,55.3,29.87,SW,224,2.0,7.0,96,0.01,,---,0.03,63.00,VWS V14.01,2013-04-29 11:54:00,
2013-04-29 07:59:00,56.4,55.3,29.87,SW,228,2.0,7.0,96,0.01,,---,0.03,53.00,VWS V14.01,2013-04-29 11:59:00,
2013-04-29 08:00:00,56.4,55.3,29.87,SW,229,3.0,7.0,96,0.01,,---,0.03,54.00,VWS V14.01,2013-04-29 12:00:00,
2013-04-29 08:04:00,56.4,55.3,29.87,WSW,240,6.0,6.0,96,0.01,,---,0.03,49.00,VWS V14.01,2013-04-29 12:04:00,
2013-04-29 08:09:00,56.3,55.2,29.87,WSW,241,3.0,6.0,96,0.01,,---,0.03,44.00,VWS V14.01,2013-04-29 12:09:00,
2013-04-29 08:14:00,56.3,55.2,29.88,SW,225,2.0,7.0,96,0.01,,---,0.03,39.00,VWS V14.01,2013-04-29 12:14:00,
2013-04-29 08:19:00,56.3,55.2,29.88,SW,217,4.0,7.0,96,0.01,,---,0.03,47.00,VWS V14.01,2013-04-29 12:19:00,
2013-04-29 08:24:00,56.3,55.2,29.88,SW,230,0.0,7.0,96,0.01,,---,0.03,46.00,VWS V14.01,2013-04-29 12:24:00,
2013-04-29 08:29:00,56.3,55.2,29.88,SW,232,3.0,9.0,96,0.01,,---,0.03,53.00,VWS V14.01,2013-04-29 12:29:00,
2013-04-29 08:30:00,56.2,55.1,29.88,SW,227,4.0,9.0,96,0.01,,---,0.03,49.00,VWS V14.01,2013-04-29 12:30:00,
2013-04-29 08:34:00,56.2,55.1,29.88,SW,220,3.0,5.0,96,0.00,,---,0.03,51.00,VWS V14.01,2013-04-29 12:34:00,
2013-04-29 08:39:00,56.2,55.1,29.88,SW,221,2.0,6.0,96,0.00,,---,0.03,60.00,VWS V14.01,2013-04-29 12:39:00,
2013-04-29 08:44:00,56.3,55.2,29.88,SW,215,3.0,6.0,96,0.00,,---,0.03,81.00,VWS V14.01,2013-04-29 12:44:00,
2013-04-29 08:49:00,56.3,55.2,29.88,SW,216,3.0,6.0,96,0.00,,---,0.03,84.00,VWS V14.01,2013-04-29 12:49:00,
2013-04-29 08:54:00,56.4,55.3,29.88,SW,220,3.0,6.0,96,0.00,,---,0.03,86.00,VWS V14.01,2013-04-29 12:54:00,
2013-04-29 09:00:00,56.4,55.3,29.88,WSW,248,3.0,6.0,96,0.00,,---,0.03,109.00,VWS V14.01,2013-04-29 13:00:00,
2013-04-29 09:05:00,56.5,55.4,29.89,SW,231,4.0,6.0,96,0.00,,---,0.03,98.00,VWS V14.01,2013-04-29 13:05:00,
2013-04-29 09:10:00,56.6,55.5,29.88,WSW,246,3.0,9.0,96,0.00,,---,0.03,104.00,VWS V14.01,2013-04-29 13:10:00,
2013-04-29 09:15:00,56.6,55.5,29.88,SW,235,6.0,9.0,96,0.00,,---,0.03,79.00,VWS V14.01,2013-04-29 13:15:00,
2013-04-29 09:20:00,56.6,55.5,29.88,SSW,207,5.0,10.0,96,0.00,,---,0.03,128.00,VWS V14.01,2013-04-29 13:20:00,
2013-04-29 09:25:00,56.6,55.5,29.88,SW,225,6.0,10.0,96,0.00,,---,0.03,125.00,VWS V14.01,2013-04-29 13:25:00,
2013-04-29 09:30:00,56.6,55.5,29.88,SW,236,5.0,10.0,96,0.00,,---,0.03,105.00,VWS V14.01,2013-04-29 13:30:00,
2013-04-29 09:35:00,56.6,55.5,29.89,WSW,238,4.0,8.0,96,0.00,,---,0.03,125.00,VWS V14.01,2013-04-29 13:35:00,
2013-04-29 09:40:00,56.7,55.6,29.89,SW,226,2.0,8.0,96,0.00,,---,0.03,130.00,VWS V14.01,2013-04-29 13:40:00,
2013-04-29 09:45:00,56.8,55.7,29.89,WSW,238,4.0,8.0,96,0.00,,---,0.03,125.00,VWS V14.01,2013-04-29 13:45:00,
2013-04-29 09:50:00,56.9,55.8,29.89,WSW,240,6.0,8.0,96,0.00,,---,0.03,234.00,VWS V14.01,2013-04-29 13:50:00,
2013-04-29 09:55:00,56.9,55.8,29.89,WSW,244,7.0,8.0,96,0.00,,---,0.03,214.00,VWS V14.01,2013-04-29 13:55:00,
2013-04-29 10:00:00,57.1,56.0,29.89,SW,229,4.0,4.0,96,0.00,,---,0.03,220.00,VWS V14.01,2013-04-29 14:00:00,
2013-04-29 10:05:00,57.2,56.1,29.88,SW,234,1.0,7.0,96,0.00,,---,0.03,251.00,VWS V14.01,2013-04-29 14:05:00,
2013-04-29 10:10:00,57.3,55.9,29.89,SW,235,7.0,9.0,95,0.00,,---,0.03,214.00,VWS V14.01,2013-04-29 14:10:00,
2013-04-29 10:15:00,57.3,55.9,29.88,WSW,244,5.0,9.0,95,0.00,,---,0.03,211.00,VWS V14.01,2013-04-29 14:15:00,
2013-04-29 10:20:00,57.4,56.0,29.89,WSW,247,4.0,9.0,95,0.00,,---,0.03,178.00,VWS V14.01,2013-04-29 14:20:00,
2013-04-29 10:25:00,57.5,55.8,29.89,WSW,242,5.0,9.0,94,0.00,,---,0.03,220.00,VWS V14.01,2013-04-29 14:25:00,
2013-04-29 10:30:00,57.5,55.8,29.89,West,259,4.0,5.0,94,0.00,,---,0.03,292.00,VWS V14.01,2013-04-29 14:30:00,
2013-04-29 10:35:00,57.6,55.9,29.89,SW,226,6.0,12.0,94,0.00,,---,0.03,346.00,VWS V14.01,2013-04-29 14:35:00,
2013-04-29 10:40:00,57.7,56.0,29.89,SSW,196,2.0,12.0,94,0.00,,---,0.03,315.00,VWS V14.01,2013-04-29 14:40:00,
2013-04-29 10:45:00,57.8,56.1,29.89,SW,231,10.0,12.0,94,0.00,,---,0.03,260.00,VWS V14.01,2013-04-29 14:45:00,
2013-04-29 10:50:00,57.8,56.1,29.89,WSW,244,5.0,12.0,94,0.00,,---,0.03,209.00,VWS V14.01,2013-04-29 14:50:00,
2013-04-29 10:55:00,57.7,56.0,29.89,WSW,250,3.0,12.0,94,0.00,,---,0.03,149.00,VWS V14.01,2013-04-29 14:55:00,
2013-04-29 11:00:00,57.7,56.0,29.90,WSW,238,3.0,12.0,94,0.00,,---,0.03,93.00,VWS V14.01,2013-04-29 15:00:00,
2013-04-29 11:01:00,57.6,55.9,29.90,SW,225,4.0,4.0,94,0.00,,---,0.03,90.00,VWS V14.01,2013-04-29 15:01:00,
2013-04-29 11:06:00,57.6,55.9,29.90,SW,230,2.0,5.0,94,0.00,,---,0.03,95.00,VWS V14.01,2013-04-29 15:06:00,
2013-04-29 11:11:00,57.5,55.8,29.90,SSW,213,2.0,6.0,94,0.00,,---,0.03,72.00,VWS V14.01,2013-04-29 15:11:00,
2013-04-29 11:16:00,57.4,55.7,29.90,SW,224,1.0,6.0,94,0.00,,---,0.03,65.00,VWS V14.01,2013-04-29 15:16:00,
2013-04-29 11:21:00,57.4,55.7,29.90,WSW,239,4.0,6.0,94,0.00,,---,0.03,49.00,VWS V14.01,2013-04-29 15:21:00,
2013-04-29 11:26:00,57.2,55.5,29.90,WSW,241,5.0,7.0,94,0.00,,---,0.03,40.00,VWS V14.01,2013-04-29 15:26:00,
2013-04-29 11:30:00,57.1,55.4,29.91,WSW,237,6.0,9.0,94,0.01,,---,0.04,98.00,VWS V14.01,2013-04-29 15:30:00,
2013-04-29 11:31:00,57.1,55.4,29.90,WSW,242,4.0,6.0,94,0.01,,---,0.04,120.00,VWS V14.01,2013-04-29 15:31:00,
2013-04-29 11:36:00,57.0,55.6,29.90,WSW,257,1.0,6.0,95,0.01,,---,0.04,221.00,VWS V14.01,2013-04-29 15:36:00,
2013-04-29 11:41:00,57.2,55.8,29.90,West,265,2.0,6.0,95,0.01,,---,0.04,336.00,VWS V14.01,2013-04-29 15:41:00,
2013-04-29 11:46:00,57.6,56.5,29.90,WSW,245,3.0,6.0,96,0.01,,---,0.04,346.00,VWS V14.01,2013-04-29 15:46:00,
2013-04-29 11:51:00,57.8,56.7,29.90,WSW,257,2.0,6.0,96,0.01,,---,0.04,352.00,VWS V14.01,2013-04-29 15:51:00,
2013-04-29 11:56:00,58.0,56.9,29.90,WSW,256,4.0,6.0,96,0.01,,---,0.04,410.00,VWS V14.01,2013-04-29 15:56:00,
2013-04-29 12:00:00,58.1,56.7,29.90,WSW,254,3.0,6.0,95,0.01,,---,0.04,383.00,VWS V14.01,2013-04-29 16:00:00,
2013-04-29 12:01:00,58.0,56.6,29.90,WSW,254,1.0,3.0,95,0.01,,---,0.04,360.00,VWS V14.01,2013-04-29 16:01:00,
2013-04-29 12:06:00,58.2,56.8,29.90,West,263,4.0,4.0,95,0.01,,---,0.04,406.00,VWS V14.01,2013-04-29 16:06:00,
2013-04-29 12:11:00,58.6,57.2,29.90,West,259,0.0,6.0,95,0.01,,---,0.04,88.00,VWS V14.01,2013-04-29 16:11:00,
2013-04-29 12:16:00,58.8,57.4,29.90,West,259,0.0,6.0,95,0.01,,---,0.04,350.00,VWS V14.01,2013-04-29 16:16:00,
2013-04-29 12:21:00,59.1,57.7,29.90,SW,228,3.0,6.0,95,0.01,,---,0.04,589.00,VWS V14.01,2013-04-29 16:21:00,
2013-04-29 12:26:00,59.3,57.6,29.90,SSW,213,4.0,6.0,94,0.01,,---,0.04,431.00,VWS V14.01,2013-04-29 16:26:00,
2013-04-29 12:30:00,59.4,57.7,29.90,SSW,213,3.0,6.0,94,0.01,,---,0.04,550.00,VWS V14.01,2013-04-29 16:30:00,
2013-04-29 12:31:00,59.4,57.4,29.90,SSW,213,2.0,3.0,93,0.00,,---,0.04,594.00,VWS V14.01,2013-04-29 16:31:00,
2013-04-29 12:36:00,59.6,57.6,29.90,SW,217,0.0,4.0,93,0.00,,---,0.04,578.00,VWS V14.01,2013-04-29 16:36:00,
2013-04-29 12:41:00,60.0,57.7,29.90,South,179,3.0,5.0,92,0.00,,---,0.04,373.00,VWS V14.01,2013-04-29 16:41:00,
2013-04-29 12:46:00,60.1,57.5,29.90,West,265,3.0,5.0,91,0.00,,---,0.04,350.00,VWS V14.01,2013-04-29 16:46:00,
2013-04-29 12:51:00,60.1,57.2,29.90,West,267,2.0,5.0,90,0.00,,---,0.04,408.00,VWS V14.01,2013-04-29 16:51:00,
2013-04-29 12:56:00,60.6,58.0,29.89,SSW,213,1.0,6.0,91,0.00,,---,0.04,647.00,VWS V14.01,2013-04-29 16:56:00,
2013-04-29 13:00:00,60.9,58.3,29.89,SSW,213,1.0,6.0,91,0.00,,---,0.04,466.00,VWS V14.01,2013-04-29 17:00:00,
2013-04-29 13:01:00,61.0,58.0,29.89,SSW,213,1.0,2.0,90,0.00,,---,0.04,415.00,VWS V14.01,2013-04-29 17:01:00,
2013-04-29 13:06:00,61.2,58.2,29.89,SSW,212,2.0,3.0,90,0.00,,---,0.04,253.00,VWS V14.01,2013-04-29 17:06:00,
2013-04-29 13:12:00,61.2,57.6,29.89,SW,216,0.0,4.0,88,0.00,,---,0.04,220.00,VWS V14.01,2013-04-29 17:12:00,
2013-04-29 13:17:00,61.2,57.6,29.89,SW,216,0.0,4.0,88,0.00,,---,0.04,362.00,VWS V14.01,2013-04-29 17:17:00,
2013-04-29 13:22:00,61.4,57.5,29.89,SW,216,2.0,5.0,87,0.00,,---,0.04,202.00,VWS V14.01,2013-04-29 17:22:00,
2013-04-29 13:27:00,61.6,57.4,29.89,SW,223,0.0,7.0,86,0.00,,---,0.04,149.00,VWS V14.01,2013-04-29 17:27:00,
2013-04-29 13:30:00,61.5,57.3,29.89,South,183,2.0,7.0,86,0.00,,---,0.04,135.00,VWS V14.01,2013-04-29 17:30:00,
2013-04-29 13:32:00,61.5,57.0,29.89,South,183,0.0,2.0,85,0.00,,---,0.04,130.00,VWS V14.01,2013-04-29 17:32:00,
2013-04-29 13:37:00,61.5,57.3,29.89,South,183,1.0,3.0,86,0.00,,---,0.04,121.00,VWS V14.01,2013-04-29 17:37:00,
2013-04-29 13:42:00,61.5,57.3,29.89,SSW,205,3.0,5.0,86,0.00,,---,0.04,113.00,VWS V14.01,2013-04-29 17:42:00,
2013-04-29 13:47:00,61.4,56.9,29.89,West,267,2.0,5.0,85,0.00,,---,0.04,100.00,VWS V14.01,2013-04-29 17:47:00,
2013-04-29 13:52:00,61.4,56.9,29.89,West,267,1.0,5.0,85,0.00,,---,0.04,95.00,VWS V14.01,2013-04-29 17:52:00,
2013-04-29 13:57:00,61.4,57.2,29.89,WSW,252,0.0,5.0,86,0.00,,---,0.04,153.00,VWS V14.01,2013-04-29 17:57:00,
2013-04-29 14:00:00,61.4,57.2,29.89,WSW,244,0.0,5.0,86,0.00,,---,0.04,258.00,VWS V14.01,2013-04-29 18:00:00,
2013-04-29 14:02:00,61.4,57.2,29.89,SW,234,0.0,4.0,86,0.00,,---,0.04,283.00,VWS V14.01,2013-04-29 18:02:00,
2013-04-29 14:07:00,61.6,57.4,29.89,West,267,4.0,5.0,86,0.00,,---,0.04,306.00,VWS V14.01,2013-04-29 18:07:00,
2013-04-29 14:12:00,61.8,57.6,29.89,WSW,257,4.0,5.0,86,0.00,,---,0.04,343.00,VWS V14.01,2013-04-29 18:12:00,
2013-04-29 14:17:00,61.9,57.0,29.89,WSW,244,5.0,8.0,84,0.00,,---,0.04,410.00,VWS V14.01,2013-04-29 18:17:00,
2013-04-29 14:22:00,62.1,57.2,29.89,WNW,289,6.0,8.0,84,0.00,,---,0.04,441.00,VWS V14.01,2013-04-29 18:22:00,
2013-04-29 14:27:00,62.2,57.0,29.89,WSW,255,5.0,8.0,83,0.00,,---,0.04,436.00,VWS V14.01,2013-04-29 18:27:00,
2013-04-29 14:30:00,62.3,57.1,29.89,West,261,7.0,8.0,83,0.00,,---,0.04,446.00,VWS V14.01,2013-04-29 18:30:00,
2013-04-29 14:32:00,62.3,56.4,29.89,WSW,257,5.0,8.0,81,0.00,,---,0.04,434.00,VWS V14.01,2013-04-29 18:32:00,
2013-04-29 14:37:00,62.4,56.5,29.89,WSW,242,5.0,9.0,81,0.00,,---,0.04,401.00,VWS V14.01,2013-04-29 18:37:00,
2013-04-29 14:42:00,62.5,56.6,29.89,SW,234,7.0,9.0,81,0.00,,---,0.04,385.00,VWS V14.01,2013-04-29 18:42:00,
2013-04-29 14:47:00,62.6,56.3,29.89,West,265,6.0,9.0,80,0.00,,---,0.04,415.00,VWS V14.01,2013-04-29 18:47:00,
2013-04-29 14:52:00,62.7,56.5,29.88,SW,234,6.0,10.0,80,0.00,,---,0.04,517.00,VWS V14.01,2013-04-29 18:52:00,
2013-04-29 14:57:00,62.9,56.6,29.88,SW,229,5.0,10.0,80,0.00,,---,0.04,383.00,VWS V14.01,2013-04-29 18:57:00,
2013-04-29 15:00:00,63.0,56.4,29.88,SW,221,7.0,11.0,79,0.00,,---,0.04,327.00,VWS V14.01,2013-04-29 19:00:00,
2013-04-29 15:02:00,63.0,56.7,29.88,WSW,242,4.0,7.0,80,0.00,,---,0.04,278.00,VWS V14.01,2013-04-29 19:02:00,
2013-04-29 15:07:00,63.0,56.7,29.88,SSW,200,3.0,7.0,80,0.00,,---,0.04,195.00,VWS V14.01,2013-04-29 19:07:00,
2013-04-29 15:13:00,62.8,56.2,29.88,SW,220,3.0,7.0,79,0.00,,---,0.04,144.00,VWS V14.01,2013-04-29 19:13:00,
2013-04-29 15:17:00,62.7,56.5,29.88,SW,220,2.0,7.0,80,0.00,,---,0.04,144.00,VWS V14.01,2013-04-29 19:17:00,
2013-04-29 15:23:00,62.6,56.7,29.88,SW,215,4.0,7.0,81,0.00,,---,0.04,155.00,VWS V14.01,2013-04-29 19:23:00,
2013-04-29 15:28:00,62.3,56.4,29.88,SSW,200,3.0,7.0,81,0.00,,---,0.04,174.00,VWS V14.01,2013-04-29 19:28:00,
2013-04-29 15:30:00,62.2,56.3,29.88,South,190,1.0,7.0,81,0.00,,---,0.04,178.00,VWS V14.01,2013-04-29 19:30:00,
2013-04-29 15:33:00,62.1,56.2,29.88,SSW,196,4.0,9.0,81,0.00,,---,0.04,188.00,VWS V14.01,2013-04-29 19:33:00,
2013-04-29 15:38:00,61.9,56.3,29.88,SSW,204,3.0,9.0,82,0.00,,---,0.04,200.00,VWS V14.01,2013-04-29 19:38:00,
2013-04-29 15:43:00,61.7,56.2,29.88,SSW,209,5.0,9.0,82,0.00,,---,0.04,193.00,VWS V14.01,2013-04-29 19:43:00,
2013-04-29 15:48:00,61.6,56.1,29.88,SW,215,2.0,9.0,82,0.00,,---,0.04,202.00,VWS V14.01,2013-04-29 19:48:00,
2013-04-29 15:53:00,61.5,56.3,29.88,SSW,210,5.0,9.0,83,0.00,,---,0.04,218.00,VWS V14.01,2013-04-29 19:53:00,
2013-04-29 15:58:00,61.6,56.7,29.88,SSW,201,6.0,9.0,84,0.00,,---,0.04,236.00,VWS V14.01,2013-04-29 19:58:00,
2013-04-29 16:00:00,61.5,56.6,29.88,South,175,7.0,9.0,84,0.00,,---,0.04,237.00,VWS V14.01,2013-04-29 20:00:00,
2013-04-29 16:03:00,61.5,56.3,29.88,SW,215,5.0,7.0,83,0.00,,---,0.04,239.00,VWS V14.01,2013-04-29 20:03:00,
2013-04-29 16:08:00,61.5,56.6,29.88,SSW,193,3.0,9.0,84,0.00,,---,0.04,243.00,VWS V14.01,2013-04-29 20:08:00,
2013-04-29 16:13:00,61.4,56.2,29.88,South,182,3.0,10.0,83,0.00,,---,0.04,258.00,VWS V14.01,2013-04-29 20:13:00,
2013-04-29 16:18:00,61.4,56.5,29.88,SW,227,5.0,10.0,84,0.00,,---,0.04,264.00,VWS V14.01,2013-04-29 20:18:00,
2013-04-29 16:23:00,61.4,56.5,29.88,SSW,212,3.0,10.0,84,0.00,,---,0.04,264.00,VWS V14.01,2013-04-29 20:23:00,
2013-04-29 16:28:00,61.4,56.5,29.88,SW,224,3.0,10.0,84,0.00,,---,0.04,257.00,VWS V14.01,2013-04-29 20:28:00,
2013-04-29 16:30:00,61.4,56.5,29.88,SW,230,4.0,10.0,84,0.00,,---,0.04,260.00,VWS V14.01,2013-04-29 20:30:00,
2013-04-29 16:33:00,61.4,56.5,29.88,SW,217,5.0,8.0,84,0.00,,---,0.04,267.00,VWS V14.01,2013-04-29 20:33:00,
2013-04-29 16:38:00,61.5,57.0,29.88,WSW,238,7.0,11.0,85,0.00,,---,0.04,287.00,VWS V14.01,2013-04-29 20:38:00,
2013-04-29 16:43:00,61.4,56.9,29.88,SSW,211,2.0,11.0,85,0.00,,---,0.04,306.00,VWS V14.01,2013-04-29 20:43:00,
2013-04-29 16:48:00,61.5,57.0,29.88,SSW,204,0.0,11.0,85,0.00,,---,0.04,339.00,VWS V14.01,2013-04-29 20:48:00,
2013-04-29 16:53:00,61.7,57.2,29.88,SSW,205,4.0,11.0,85,0.00,,---,0.04,431.00,VWS V14.01,2013-04-29 20:53:00,
2013-04-29 16:58:00,62.0,57.5,29.88,SW,223,3.0,11.0,85,0.00,,---,0.04,396.00,VWS V14.01,2013-04-29 20:58:00,
2013-04-29 17:00:00,62.2,57.6,29.88,SW,223,3.0,11.0,85,0.00,,---,0.04,362.00,VWS V14.01,2013-04-29 21:00:00,
2013-04-29 17:03:00,62.3,57.7,29.88,SSW,192,5.0,6.0,85,0.00,,---,0.04,352.00,VWS V14.01,2013-04-29 21:03:00,
2013-04-29 17:08:00,62.6,57.4,29.88,WSW,258,5.0,6.0,83,0.00,,---,0.04,336.00,VWS V14.01,2013-04-29 21:08:00,
2013-04-29 17:13:00,62.6,57.4,29.88,SW,231,4.0,6.0,83,0.00,,---,0.04,332.00,VWS V14.01,2013-04-29 21:13:00,
2013-04-29 17:18:00,62.7,57.5,29.88,SW,225,4.0,6.0,83,0.00,,---,0.04,292.00,VWS V14.01,2013-04-29 21:18:00,
2013-04-29 17:23:00,62.8,57.6,29.88,SW,226,1.0,6.0,83,0.00,,---,0.04,315.00,VWS V14.01,2013-04-29 21:23:00,
2013-04-29 17:28:00,63.1,58.2,29.87,SSW,200,1.0,6.0,84,0.00,,---,0.04,441.00,VWS V14.01,2013-04-29 21:28:00,
2013-04-29 17:30:00,63.2,58.0,29.87,SW,214,2.0,6.0,83,0.00,,---,0.04,413.00,VWS V14.01,2013-04-29 21:30:00,
2013-04-29 17:33:00,63.3,58.1,29.88,SW,214,0.0,4.0,83,0.00,,---,0.04,237.00,VWS V14.01,2013-04-29 21:33:00,
2013-04-29 17:38:00,63.4,57.8,29.88,West,281,4.0,6.0,82,0.00,,---,0.04,176.00,VWS V14.01,2013-04-29 21:38:00,
2013-04-29 17:43:00,63.2,57.3,29.88,West,274,0.0,6.0,81,0.00,,---,0.04,132.00,VWS V14.01,2013-04-29 21:43:00,
2013-04-29 17:48:00,63.0,57.8,29.88,West,281,1.0,6.0,83,0.00,,---,0.04,102.00,VWS V14.01,2013-04-29 21:48:00,
2013-04-29 17:53:00,62.8,57.6,29.88,WNW,290,3.0,6.0,83,0.00,,---,0.04,72.00,VWS V14.01,2013-04-29 21:53:00,
2013-04-29 17:58:00,62.5,56.9,29.88,WNW,290,1.0,6.0,82,0.00,,---,0.04,56.00,VWS V14.01,2013-04-29 21:58:00,
2013-04-29 18:00:00,62.4,56.8,29.88,WNW,290,0.0,6.0,82,0.00,,---,0.04,53.00,VWS V14.01,2013-04-29 22:00:00,
2013-04-29 18:03:00,62.3,57.1,29.89,WNW,290,1.0,1.0,83,0.00,,---,0.04,40.00,VWS V14.01,2013-04-29 22:03:00,
2013-04-29 18:08:00,62.2,57.0,29.89,WNW,290,0.0,1.0,83,0.00,,---,0.04,42.00,VWS V14.01,2013-04-29 22:08:00,
2013-04-29 18:13:00,62.1,56.9,29.89,WNW,290,0.0,1.0,83,0.00,,---,0.04,62.00,VWS V14.01,2013-04-29 22:13:00,
2013-04-29 18:18:00,62.1,57.2,29.89,WNW,290,0.0,1.0,84,0.00,,---,0.04,77.00,VWS V14.01,2013-04-29 22:18:00,
2013-04-29 18:23:00,62.1,57.2,29.89,WNW,290,0.0,1.0,84,0.00,,---,0.04,91.00,VWS V14.01,2013-04-29 22:23:00,
2013-04-29 18:28:00,62.1,57.2,29.89,WNW,290,0.0,1.0,84,0.00,,---,0.04,125.00,VWS V14.01,2013-04-29 22:28:00,
2013-04-29 18:30:00,62.1,57.2,29.88,WNW,290,0.0,1.0,84,0.00,,---,0.04,132.00,VWS V14.01,2013-04-29 22:30:00,
2013-04-29 18:33:00,62.2,57.6,29.89,WNW,290,0.0,0.0,85,0.00,,---,0.04,162.00,VWS V14.01,2013-04-29 22:33:00,
2013-04-29 18:38:00,62.3,57.7,29.88,WNW,290,0.0,0.0,85,0.00,,---,0.04,183.00,VWS V14.01,2013-04-29 22:38:00,
2013-04-29 18:43:00,62.4,57.8,29.88,WNW,290,0.0,0.0,85,0.00,,---,0.04,144.00,VWS V14.01,2013-04-29 22:43:00,
2013-04-29 18:48:00,62.5,57.6,29.88,WNW,290,0.0,0.0,84,0.00,,---,0.04,128.00,VWS V14.01,2013-04-29 22:48:00,
2013-04-29 18:53:00,62.7,57.8,29.88,WNW,290,0.0,0.0,84,0.00,,---,0.04,107.00,VWS V14.01,2013-04-29 22:53:00,
2013-04-29 18:58:00,62.8,57.9,29.89,WNW,290,2.0,2.0,84,0.00,,---,0.04,83.00,VWS V14.01,2013-04-29 22:58:00,
2013-04-29 19:00:00,62.8,57.9,29.89,WNW,290,0.0,2.0,84,0.00,,---,0.04,81.00,VWS V14.01,2013-04-29 23:00:00,
2013-04-29 19:03:00,62.9,58.0,29.88,WNW,290,0.0,2.0,84,0.00,,---,0.04,76.00,VWS V14.01,2013-04-29 23:03:00,
2013-04-29 19:08:00,62.8,57.6,29.89,SW,229,1.0,5.0,83,0.00,,---,0.04,65.00,VWS V14.01,2013-04-29 23:08:00,
2013-04-29 19:13:00,62.7,57.5,29.89,SW,229,3.0,5.0,83,0.00,,---,0.04,63.00,VWS V14.01,2013-04-29 23:13:00,
2013-04-29 19:19:00,62.6,57.4,29.89,SW,229,1.0,5.0,83,0.00,,---,0.04,53.00,VWS V14.01,2013-04-29 23:19:00,
2013-04-29 19:24:00,62.5,57.3,29.89,SW,229,0.0,5.0,83,0.00,,---,0.04,47.00,VWS V14.01,2013-04-29 23:24:00,
2013-04-29 19:29:00,62.4,57.2,29.89,SW,229,0.0,5.0,83,0.00,,---,0.04,39.00,VWS V14.01,2013-04-29 23:29:00,
2013-04-29 19:30:00,62.4,57.2,29.89,SW,229,0.0,5.0,83,0.00,,---,0.04,39.00,VWS V14.01,2013-04-29 23:30:00,
2013-04-29 19:34:00,62.3,57.1,29.89,SW,229,0.0,0.0,83,0.00,,---,0.04,44.00,VWS V14.01,2013-04-29 23:34:00,
2013-04-29 19:39:00,62.2,57.0,29.89,SW,229,0.0,0.0,83,0.00,,---,0.04,30.00,VWS V14.01,2013-04-29 23:39:00,
2013-04-29 19:44:00,62.2,56.6,29.89,SW,229,0.0,1.0,82,0.00,,---,0.04,25.00,VWS V14.01,2013-04-29 23:44:00,
2013-04-29 19:49:00,62.1,56.9,29.89,SW,229,0.0,1.0,83,0.00,,---,0.04,21.00,VWS V14.01,2013-04-29 23:49:00,
2013-04-29 19:54:00,61.9,56.7,29.89,SW,229,0.0,1.0,83,0.00,,---,0.04,14.00,VWS V14.01,2013-04-29 23:54:00,
2013-04-29 19:59:00,61.8,56.6,29.89,SW,229,0.0,1.0,83,0.00,,---,0.04,12.00,VWS V14.01,2013-04-29 23:59:00,
2013-04-29 20:00:00,61.8,56.6,29.89,SW,229,0.0,1.0,83,0.00,,---,0.04,12.00,VWS V14.01,2013-04-30 00:00:00,
2013-04-29 20:04:00,61.7,56.8,29.89,SW,229,1.0,1.0,84,0.00,,---,0.04,9.00,VWS V14.01,2013-04-30 00:04:00,
2013-04-29 20:09:00,61.5,56.6,29.89,SW,229,0.0,2.0,84,0.00,,---,0.04,7.00,VWS V14.01,2013-04-30 00:09:00,
2013-04-29 20:14:00,61.4,56.5,29.89,SW,229,0.0,2.0,84,0.00,,---,0.04,5.00,VWS V14.01,2013-04-30 00:14:00,
2013-04-29 20:19:00,61.2,56.3,29.89,SW,229,0.0,2.0,84,0.00,,---,0.04,0.00,VWS V14.01,2013-04-30 00:19:00,
2013-04-29 20:24:00,61.0,56.1,29.90,SW,229,0.0,3.0,84,0.00,,---,0.04,0.00,VWS V14.01,2013-04-30 00:24:00,
2013-04-29 20:29:00,60.8,55.6,29.89,SW,229,0.0,3.0,83,0.00,,---,0.04,0.00,VWS V14.01,2013-04-30 00:29:00,
2013-04-29 20:30:00,60.8,55.6,29.90,SW,229,1.0,3.0,83,0.00,,---,0.04,0.00,VWS V14.01,2013-04-30 00:30:00,
2013-04-29 20:34:00,60.6,55.4,29.90,SW,229,1.0,2.0,83,0.00,,---,0.04,0.00,VWS V14.01,2013-04-30 00:34:00,
2013-04-29 20:39:00,60.5,55.3,29.90,SW,229,0.0,2.0,83,0.00,,---,0.04,0.00,VWS V14.01,2013-04-30 00:39:00,
2013-04-29 20:44:00,60.3,55.1,29.90,SW,229,0.0,2.0,83,0.00,,---,0.04,0.00,VWS V14.01,2013-04-30 00:44:00,
2013-04-29 20:49:00,60.1,54.9,29.90,SW,229,0.0,2.0,83,0.00,,---,0.04,0.00,VWS V14.01,2013-04-30 00:49:00,
2013-04-29 20:54:00,59.8,55.0,29.90,SW,229,0.0,2.0,84,0.00,,---,0.04,0.00,VWS V14.01,2013-04-30 00:54:00,
2013-04-29 20:59:00,59.6,54.8,29.90,SW,229,0.0,2.0,84,0.00,,---,0.04,0.00,VWS V14.01,2013-04-30 00:59:00,
2013-04-29 21:00:00,59.6,54.8,29.90,SW,229,0.0,2.0,84,0.00,,---,0.04,0.00,VWS V14.01,2013-04-30 01:00:00,
2013-04-29 21:04:00,59.4,54.9,29.90,SW,229,0.0,1.0,85,0.00,,---,0.04,0.00,VWS V14.01,2013-04-30 01:04:00,
2013-04-29 21:09:00,59.1,54.6,29.91,SW,229,0.0,1.0,85,0.00,,---,0.04,0.00,VWS V14.01,2013-04-30 01:09:00,
2013-04-29 21:14:00,58.9,54.4,29.91,SW,229,0.0,1.0,85,0.00,,---,0.04,0.00,VWS V14.01,2013-04-30 01:14:00,
2013-04-29 21:19:00,58.7,54.5,29.91,SW,229,0.0,1.0,86,0.00,,---,0.04,0.00,VWS V14.01,2013-04-30 01:19:00,
2013-04-29 21:24:00,58.5,54.3,29.91,SW,229,0.0,2.0,86,0.00,,---,0.04,0.00,VWS V14.01,2013-04-30 01:24:00,
2013-04-29 21:29:00,58.3,54.1,29.92,SW,229,0.0,2.0,86,0.00,,---,0.04,0.00,VWS V14.01,2013-04-30 01:29:00,
2013-04-29 21:30:00,58.2,54.0,29.92,SW,229,0.0,2.0,86,0.00,,---,0.04,0.00,VWS V14.01,2013-04-30 01:30:00,
2013-04-29 21:34:00,58.1,53.9,29.92,SW,229,0.0,0.0,86,0.00,,---,0.04,0.00,VWS V14.01,2013-04-30 01:34:00,
2013-04-29 21:39:00,57.8,53.7,29.92,SW,229,0.0,1.0,86,0.00,,---,0.04,0.00,VWS V14.01,2013-04-30 01:39:00,
2013-04-29 21:44:00,57.6,54.1,29.92,SW,229,0.0,1.0,88,0.00,,---,0.04,0.00,VWS V14.01,2013-04-30 01:44:00,
2013-04-29 21:49:00,57.4,53.9,29.92,SW,229,0.0,2.0,88,0.00,,---,0.04,0.00,VWS V14.01,2013-04-30 01:49:00,
2013-04-29 21:54:00,57.3,54.1,29.92,SW,229,0.0,2.0,89,0.00,,---,0.04,0.00,VWS V14.01,2013-04-30 01:54:00,
2013-04-29 21:59:00,57.1,53.9,29.92,SW,229,0.0,2.0,89,0.00,,---,0.04,0.00,VWS V14.01,2013-04-30 01:59:00,
2013-04-29 22:00:00,57.1,53.9,29.92,SW,229,0.0,2.0,89,0.00,,---,0.04,0.00,VWS V14.01,2013-04-30 02:00:00,
2013-04-29 22:04:00,57.1,53.9,29.92,SW,229,0.0,2.0,89,0.00,,---,0.04,0.00,VWS V14.01,2013-04-30 02:04:00,
2013-04-29 22:09:00,57.0,54.1,29.92,SW,229,0.0,2.0,90,0.00,,---,0.04,0.00,VWS V14.01,2013-04-30 02:09:00,
2013-04-29 22:14:00,56.9,54.0,29.92,SW,224,1.0,3.0,90,0.00,,---,0.04,0.00,VWS V14.01,2013-04-30 02:14:00,
2013-04-29 22:19:00,56.9,54.0,29.92,SW,224,0.0,3.0,90,0.00,,---,0.04,0.00,VWS V14.01,2013-04-30 02:19:00,
2013-04-29 22:24:00,56.9,54.0,29.92,SW,224,0.0,3.0,90,0.00,,---,0.04,0.00,VWS V14.01,2013-04-30 02:24:00,
2013-04-29 22:29:00,56.9,54.0,29.92,SW,224,0.0,3.0,90,0.00,,---,0.04,0.00,VWS V14.01,2013-04-30 02:29:00,
2013-04-29 22:30:00,56.9,54.0,29.92,SW,224,0.0,3.0,90,0.00,,---,0.04,0.00,VWS V14.01,2013-04-30 02:30:00,
2013-04-29 22:34:00,56.9,54.0,29.92,SW,224,0.0,2.0,90,0.00,,---,0.04,0.00,VWS V14.01,2013-04-30 02:34:00,
2013-04-29 22:39:00,56.9,54.0,29.92,SW,221,0.0,2.0,90,0.00,,---,0.04,0.00,VWS V14.01,2013-04-30 02:39:00,
2013-04-29 22:44:00,56.8,53.9,29.92,SW,219,0.0,2.0,90,0.00,,---,0.04,0.00,VWS V14.01,2013-04-30 02:44:00,
2013-04-29 22:49:00,56.8,53.9,29.92,SW,218,1.0,2.0,90,0.00,,---,0.04,0.00,VWS V14.01,2013-04-30 02:49:00,
2013-04-29 22:54:00,56.9,54.0,29.92,SSW,211,1.0,3.0,90,0.00,,---,0.04,0.00,VWS V14.01,2013-04-30 02:54:00,
2013-04-29 22:59:00,57.0,54.1,29.92,SSW,209,1.0,3.0,90,0.00,,---,0.04,0.00,VWS V14.01,2013-04-30 02:59:00,
2013-04-29 23:00:00,57.0,54.1,29.92,SSW,209,2.0,3.0,90,0.00,,---,0.04,0.00,VWS V14.01,2013-04-30 03:00:00,
2013-04-29 23:04:00,57.0,54.1,29.92,SSW,208,1.0,3.0,90,0.00,,---,0.04,0.00,VWS V14.01,2013-04-30 03:04:00,
2013-04-29 23:09:00,57.1,54.2,29.92,SSW,208,0.0,3.0,90,0.00,,---,0.04,0.00,VWS V14.01,2013-04-30 03:09:00,
2013-04-29 23:15:00,57.1,54.2,29.92,SSW,208,0.0,3.0,90,0.00,,---,0.04,0.00,VWS V14.01,2013-04-30 03:15:00,
2013-04-29 23:20:00,57.0,54.1,29.92,SSW,208,1.0,3.0,90,0.00,,---,0.04,0.00,VWS V14.01,2013-04-30 03:20:00,
2013-04-29 23:25:00,56.9,54.0,29.92,SSW,208,0.0,3.0,90,0.00,,---,0.04,0.00,VWS V14.01,2013-04-30 03:25:00,
2013-04-29 23:30:00,56.8,54.5,29.92,SSW,208,0.0,3.0,92,0.00,,---,0.04,0.00,VWS V14.01,2013-04-30 03:30:00,
2013-04-29 23:35:00,56.6,53.4,29.92,SSW,208,0.0,0.0,89,0.00,,---,0.04,0.00,VWS V14.01,2013-04-30 03:35:00,
2013-04-29 23:40:00,56.3,52.8,29.92,SSW,208,0.0,1.0,88,0.00,,---,0.04,0.00,VWS V14.01,2013-04-30 03:40:00,
2013-04-29 23:45:00,56.1,52.9,29.92,SSW,208,0.0,1.0,89,0.00,,---,0.04,0.00,VWS V14.01,2013-04-30 03:45:00,
2013-04-29 23:50:00,56.0,53.1,29.92,SSW,208,0.0,2.0,90,0.00,,---,0.04,0.00,VWS V14.01,2013-04-30 03:50:00,
2013-04-29 23:55:00,56.1,53.5,29.92,SSW,208,0.0,2.0,91,0.00,,---,0.04,0.00,VWS V14.01,2013-04-30 03:55:00,